GW1515 Weather Reports


Display with metric or nautical units.
time (UTC)temp
F
wind
direction
speed
MPH
gust
MPH
rain 1hr
in
rain 24hr
in
rain mn
in
humidity
%
barometer
mb
20260905121255 77 12 4.0 6.0 0.00 0.00 0.00 97 1014.0
20260905120753 77 4 3.0 5.0 0.00 0.00 0.00 98 1014.1
20260905120248 77 297 0.0 2.0 0.00 0.00 0.00 98 1013.9
20260905115743 76 328 0.0 2.0 0.00 0.00 0.00 98 1014.0
20260905115243 76 339 0.0 1.0 0.00 0.00 0.00 98 1013.9
20260905114742 76 154 0.0 0.0 0.00 0.00 0.00 98 1013.7
20260905114241 76 124 0.0 1.0 0.00 0.00 0.00 98 1013.6
20260905113740 76 89 0.0 0.0 0.00 0.00 0.00 98 1013.7
20260905113236 76 187 0.0 1.0 0.00 0.00 0.00 98 1013.4
20260905112731 76 218 0.0 2.0 0.00 0.00 0.00 97 1013.4
20260905112226 77 224 0.0 1.0 0.00 0.00 0.00 97 1013.4
20260905111721 77 315 0.0 2.0 0.00 0.00 0.00 97 1013.5
20260905111215 77 255 1.0 3.0 0.00 0.00 0.00 97 1013.7
20260905110714 77 326 0.0 2.0 0.00 0.00 0.00 97 1013.2
20260905110209 77 242 0.0 2.0 0.00 0.00 0.00 97 1013.3
20260905105705 77 297 0.0 2.0 0.00 0.00 0.00 97 1013.5
20260905105203 77 221 1.0 2.0 0.00 0.00 0.00 97 1013.4
20260905104658 77 253 0.0 3.0 0.00 0.00 0.00 97 1013.4
20260905104154 77 217 0.0 1.0 0.00 0.00 0.00 97 1013.4
20260905103649 77 142 0.0 1.0 0.00 0.00 0.00 96 1013.4
20260905103145 77 164 0.0 1.0 0.00 0.00 0.00 96 1013.6
20260905102641 77 117 0.0 0.0 0.00 0.00 0.00 96 1013.6
20260905102137 78 7 0.0 1.0 0.00 0.00 0.00 96 1013.5
20260905101636 78 15 0.0 0.0 0.00 0.00 0.00 96 1013.3
20260905101134 78 237 0.0 1.0 0.00 0.00 0.00 96 1013.6
20260905100630 78 205 0.0 2.0 0.00 0.00 0.00 96 1013.5
20260905100125 78 242 0.0 2.0 0.00 0.00 0.00 96 1013.4
20260905095625 77 218 0.0 1.0 0.00 0.00 0.00 96 1013.6
20260905095120 77 293 0.0 2.0 0.00 0.00 0.00 96 1013.4
20260905094615 77 224 0.0 2.0 0.00 0.00 0.00 96 1013.4
20260905094114 77 214 0.0 2.0 0.00 0.00 0.00 96 1013.5
20260905093614 77 252 1.0 2.0 0.00 0.00 0.00 96 1013.6
20260905093111 77 187 0.0 1.0 0.00 0.00 0.00 96 1013.8
20260905092610 78 246 0.0 2.0 0.00 0.00 0.00 96 1013.6
20260905092107 77 296 1.0 3.0 0.00 0.00 0.00 96 1013.5
20260905091606 77 199 0.0 2.0 0.00 0.00 0.00 96 1013.5
20260905091101 77 192 1.0 2.0 0.00 0.00 0.00 96 1013.3
20260905090601 78 224 0.0 2.0 0.00 0.00 0.00 96 1013.3
20260905090056 78 322 0.0 1.0 0.00 0.00 0.00 95 1013.5
20260905085554 78 218 0.0 1.0 0.00 0.00 0.00 95 1013.3
20260905085050 78 155 0.0 2.0 0.00 0.00 0.00 95 1013.3
20260905084550 78 237 1.0 3.0 0.00 0.00 0.00 95 1013.3
20260905084045 78 252 2.0 2.0 0.00 0.00 0.00 95 1013.5
20260905083539 78 240 0.0 2.0 0.00 0.00 0.00 95 1013.4
20260905083036 78 283 0.0 2.0 0.00 0.00 0.00 94 1013.5
20260905082531 78 274 0.0 2.0 0.00 0.00 0.00 94 1013.5
20260905082027 78 224 0.0 2.0 0.00 0.00 0.00 94 1013.6
20260905081520 78 255 0.0 2.0 0.00 0.00 0.00 94 1013.4
20260905081021 78 230 0.0 2.0 0.00 0.00 0.00 94 1013.4
20260905080515 78 249 0.0 2.0 0.00 0.00 0.00 94 1013.6
20260905080010 78 229 2.0 3.0 0.00 0.00 0.00 94 1013.5
20260905075457 78 231 0.0 1.0 0.00 0.00 0.00 94 1013.6
20260905074956 78 224 0.0 1.0 0.00 0.00 0.00 94 1013.4
20260905074452 78 254 0.0 2.0 0.00 0.00 0.00 94 1013.5
20260905073947 78 249 0.0 0.0 0.00 0.00 0.00 93 1013.8
20260905073442 78 266 0.0 1.0 0.00 0.00 0.00 93 1013.6
20260905072938 78 255 0.0 2.0 0.00 0.00 0.00 94 1013.5
20260905072432 78 257 1.0 2.0 0.00 0.00 0.00 94 1013.5
20260905071928 78 240 0.0 2.0 0.00 0.00 0.00 94 1013.6
20260905071425 78 217 0.0 1.0 0.00 0.00 0.00 94 1013.4
20260905070924 78 269 0.0 0.0 0.00 0.00 0.00 94 1013.6
20260905070421 78 269 0.0 0.0 0.00 0.00 0.00 93 1013.5
20260905065920 78 249 0.0 1.0 0.00 0.00 0.00 93 1013.8
20260905065418 78 217 0.0 1.0 0.00 0.00 0.00 93 1013.6
20260905064914 79 217 0.0 2.0 0.00 0.00 0.00 93 1013.6
20260905064409 79 217 0.0 2.0 0.00 0.00 0.00 93 1013.7
20260905063908 79 322 0.0 0.0 0.00 0.00 0.00 92 1013.7
20260905063404 79 322 0.0 1.0 0.00 0.00 0.00 92 1013.6
20260905062900 79 32 0.0 1.0 0.00 0.00 0.00 92 1013.5
20260905062400 79 230 0.0 1.0 0.00 0.00 0.00 92 1013.8
20260905061855 79 217 0.0 1.0 0.00 0.00 0.00 91 1013.5
20260905061349 80 269 0.0 2.0 0.00 0.00 0.00 91 1013.9
20260905060843 80 269 0.0 2.0 0.00 0.00 0.00 91 1013.7
20260905060340 80 261 1.0 2.0 0.00 0.00 0.00 90 1013.6
20260905055839 80 89 0.0 2.0 0.00 0.00 0.00 90 1014.1
20260905055334 80 32 0.0 2.0 0.00 0.00 0.00 90 1014.1
20260905054833 80 62 0.0 2.0 0.00 0.00 0.00 89 1013.9
20260905054330 81 230 0.0 1.0 0.00 0.00 0.00 89 1013.8
20260905053830 81 243 1.0 3.0 0.00 0.00 0.00 88 1013.8
20260905053324 81 218 2.0 3.0 0.00 0.00 0.00 88 1014.1
20260905052819 81 246 1.0 2.0 0.00 0.00 0.00 88 1014.0
20260905052314 81 240 1.0 2.0 0.00 0.00 0.00 88 1013.8
20260905051814 81 235 0.0 2.0 0.00 0.00 0.00 87 1013.7
20260905051310 82 215 1.0 3.0 0.00 0.00 0.00 87 1013.8
20260905050806 82 199 2.0 3.0 0.00 0.00 0.00 87 1013.7
20260905050302 82 237 1.0 3.0 0.00 0.00 0.00 86 1013.8
20260905045757 82 265 0.0 3.0 0.00 0.00 0.00 85 1014.0
20260905045252 82 218 0.0 2.0 0.00 0.00 0.00 85 1013.5
20260905044747 83 237 3.0 3.0 0.00 0.00 0.00 84 1013.8
20260905044242 83 209 1.0 4.0 0.00 0.00 0.00 84 1014.0
20260905043741 83 249 2.0 4.0 0.00 0.00 0.00 84 1014.0
20260905043236 83 238 2.0 4.0 0.00 0.00 0.00 84 1013.9
20260905042731 83 234 1.0 3.0 0.00 0.00 0.00 84 1013.9
20260905042230 83 239 2.0 5.0 0.00 0.00 0.00 83 1013.8
20260905041726 83 205 3.0 4.0 0.00 0.00 0.00 83 1014.1
20260905041221 83 230 1.0 3.0 0.00 0.00 0.00 84 1014.1
20260905040716 82 203 1.0 2.0 0.00 0.00 0.00 84 1013.7
20260905040215 83 219 2.0 3.0 0.00 0.00 0.00 84 1013.8
20260905035709 82 248 1.0 3.0 0.00 0.00 0.00 84 1014.1
20260905035206 82 228 2.0 3.0 0.00 0.00 0.00 84 1014.1
20260905034702 82 242 2.0 3.0 0.00 0.00 0.00 84 1014.2
20260905034201 82 228 1.0 2.0 0.00 0.00 0.00 85 1013.9
20260905033700 82 218 1.0 2.0 0.00 0.00 0.00 85 1014.2
20260905033156 82 269 0.0 2.0 0.00 0.00 0.00 85 1014.2
20260905032655 82 237 0.0 2.0 0.00 0.00 0.00 85 1014.3
20260905032156 82 260 0.0 2.0 0.00 0.00 0.00 85 1014.3
20260905031652 82 262 0.0 3.0 0.00 0.00 0.00 86 1014.4
20260905031147 82 269 0.0 1.0 0.00 0.00 0.00 86 1014.2
20260905030642 82 269 0.0 2.0 0.00 0.00 0.00 86 1014.5
20260905030137 81 269 0.0 3.0 0.00 0.00 0.00 87 1014.3
20260905025632 81 235 0.0 1.0 0.00 0.00 0.00 87 1014.4
20260905025128 81 242 0.0 2.0 0.00 0.00 0.00 87 1014.2
20260905024623 82 242 0.0 1.0 0.00 0.00 0.00 87 1014.3
20260905024119 82 215 0.0 1.0 0.00 0.00 0.00 85 1014.3
20260905023614 82 246 0.0 1.0 0.00 0.00 0.00 84 1014.3
20260905023108 83 242 0.0 2.0 0.00 0.00 0.00 83 1014.1
20260905022607 83 230 0.0 2.0 0.00 0.00 0.00 84 1014.1
20260905022103 83 235 0.0 1.0 0.00 0.00 0.00 83 1013.9
20260905021602 83 261 1.0 2.0 0.00 0.00 0.00 83 1013.9
20260905021058 83 180 0.0 2.0 0.00 0.00 0.00 83 1013.9
20260905020557 83 179 1.0 2.0 0.00 0.00 0.00 83 1014.1
20260905020053 83 187 0.0 0.0 0.00 0.00 0.00 83 1014.1
20260905015550 83 187 0.0 1.0 0.00 0.00 0.00 83 1014.0
20260905015045 83 142 0.0 1.0 0.00 0.00 0.00 82 1013.9
20260905014540 83 164 0.0 1.0 0.00 0.00 0.00 82 1014.1
20260905014036 84 143 0.0 1.0 0.00 0.00 0.00 82 1013.7
20260905013532 84 20 0.0 1.0 0.00 0.00 0.00 81 1013.9
20260905013027 84 343 0.0 0.0 0.00 0.00 0.00 80 1013.8
20260905012521 85 304 0.0 2.0 0.00 0.00 0.00 79 1013.5
20260905012019 85 269 0.0 2.0 0.00 0.00 0.00 78 1013.6
20260905011515 85 263 0.0 2.0 0.00 0.00 0.00 78 1013.6
20260905011010 86 251 2.0 2.0 0.00 0.00 0.00 77 1013.6
20260905010509 86 267 1.0 2.0 0.00 0.00 0.00 76 1013.6
20260905010006 86 259 1.0 2.0 0.00 0.00 0.00 76 1013.1
20260905005501 86 261 1.0 2.0 0.00 0.00 0.00 76 1013.1
20260905004956 86 250 1.0 3.0 0.00 0.00 0.00 75 1013.4
20260905004451 87 209 2.0 5.0 0.00 0.00 0.00 74 1013.0
20260905003946 87 183 0.0 3.0 0.00 0.00 0.00 74 1013.2
20260905003442 87 240 2.0 3.0 0.00 0.00 0.00 73 1013.1
20260905002937 87 236 2.0 4.0 0.00 0.00 0.00 73 1013.1
20260905002437 87 242 1.0 2.0 0.00 0.00 0.00 73 1013.2
20260905001931 88 254 2.0 2.0 0.00 0.00 0.00 72 1013.0
20260905001427 88 256 2.0 3.0 0.00 0.00 0.00 72 1013.2
20260905000921 88 243 0.0 3.0 0.00 0.00 0.00 71 1013.1
20260905000417 88 246 1.0 3.0 0.00 0.00 0.00 71 1013.1
20260904235912 89 244 2.0 3.0 0.00 0.00 0.00 70 1013.3
20260904235408 89 239 2.0 3.0 0.00 0.00 0.00 69 1013.1
20260904234902 89 237 2.0 4.0 0.00 0.00 0.00 69 1013.1
20260904234356 90 242 3.0 4.0 0.00 0.00 0.00 69 1013.5
20260904233852 90 241 2.0 5.0 0.00 0.00 0.00 70 1013.2
20260904233348 90 253 2.0 5.0 0.00 0.00 0.00 70 1013.3
20260904232844 91 207 4.0 5.0 0.00 0.00 0.00 70 1013.5
20260904232341 91 203 3.0 5.0 0.00 0.00 0.00 70 1013.4
20260904231837 91 222 2.0 7.0 0.00 0.00 0.00 69 1013.4
20260904231336 91 228 1.0 5.0 0.00 0.00 0.00 69 1013.3
20260904230832 92 261 2.0 3.0 0.00 0.00 0.00 68 1013.4
20260904230330 92 248 2.0 5.0 0.00 0.00 0.00 67 1013.3
20260904225825 92 255 2.0 5.0 0.00 0.00 0.00 66 1013.5
20260904225324 92 235 5.0 8.0 0.00 0.00 0.00 67 1013.4
20260904224818 92 224 4.0 7.0 0.00 0.00 0.00 68 1013.4
20260904224314 92 273 3.0 8.0 0.00 0.00 0.00 68 1013.6
20260904223812 92 226 5.0 11.0 0.00 0.00 0.00 69 1013.4
20260904223307 92 204 5.0 9.0 0.00 0.00 0.00 67 1013.3
20260904222804 93 218 7.0 9.0 0.00 0.00 0.00 66 1013.5
20260904222259 92 273 1.0 13.0 0.00 0.00 0.00 66 1013.4
20260904221758 92 234 3.0 14.0 0.00 0.00 0.00 67 1013.2
20260904221253 93 251 2.0 5.0 0.00 0.00 0.00 66 1013.4
20260904220749 92 233 4.0 9.0 0.00 0.00 0.00 66 1013.2
20260904220247 92 227 2.0 7.0 0.00 0.00 0.00 66 1013.4
20260904215743 93 214 8.0 12.0 0.00 0.00 0.00 65 1013.3
20260904215238 93 238 2.0 8.0 0.00 0.00 0.00 66 1013.3
20260904214734 92 216 4.0 10.0 0.00 0.00 0.00 66 1013.3
20260904214229 93 208 4.0 9.0 0.00 0.00 0.00 64 1013.0
20260904213727 92 242 3.0 12.0 0.00 0.00 0.00 67 1013.2
20260904213224 93 209 9.0 13.0 0.00 0.00 0.00 65 1013.4
20260904212719 93 214 4.0 9.0 0.00 0.00 0.00 64 1013.3
20260904212214 94 203 11.0 14.0 0.00 0.00 0.00 63 1013.2
20260904211714 94 287 0.0 7.0 0.00 0.00 0.00 62 1013.3
20260904211208 92 219 4.0 12.0 0.00 0.00 0.00 64 1013.2
20260904210703 94 260 3.0 8.0 0.00 0.00 0.00 63 1013.4
20260904210158 93 234 2.0 12.0 0.00 0.00 0.00 65 1013.3
20260904205654 93 243 3.0 13.0 0.00 0.00 0.00 66 1013.7
20260904205150 93 218 5.0 9.0 0.00 0.00 0.00 65 1013.7
20260904204646 93 218 5.0 12.0 0.00 0.00 0.00 66 1013.6
20260904204142 92 158 6.0 12.0 0.00 0.00 0.00 66 1013.9
20260904203637 93 197 7.0 9.0 0.00 0.00 0.00 65 1013.7
20260904203134 92 231 11.0 11.0 0.00 0.00 0.00 64 1013.8
20260904202629 92 167 5.0 8.0 0.00 0.00 0.00 64 1013.8
20260904202125 93 213 7.0 11.0 0.00 0.00 0.00 62 1013.7
20260904201620 91 202 4.0 11.0 0.00 0.00 0.00 65 1013.9
20260904201115 92 242 5.0 14.0 0.00 0.00 0.00 63 1014.1
20260904200615 92 211 4.0 9.0 0.00 0.00 0.00 63 1014.1
20260904200110 92 187 5.0 9.0 0.00 0.00 0.00 63 1014.1
20260904195608 92 219 3.0 9.0 0.00 0.00 0.00 63 1014.1
20260904195102 91 207 3.0 9.0 0.00 0.00 0.00 66 1014.3
20260904194602 90 170 5.0 11.0 0.00 0.00 0.00 66 1014.5
20260904194057 91 219 4.0 11.0 0.00 0.00 0.00 64 1014.4
20260904193551 90 215 4.0 9.0 0.00 0.00 0.00 67 1014.4
20260904193048 91 222 6.0 10.0 0.00 0.00 0.00 66 1014.6
20260904192548 90 163 5.0 11.0 0.00 0.00 0.00 65 1014.5
20260904192043 90 171 4.0 13.0 0.00 0.00 0.00 67 1014.9
20260904191540 89 191 3.0 9.0 0.00 0.00 0.00 68 1014.9
20260904191036 88 158 5.0 12.0 0.00 0.00 0.00 69 1015.0
20260904190532 88 144 5.0 12.0 0.00 0.00 0.00 69 1015.0
20260904190028 88 154 4.0 15.0 0.00 0.00 0.00 68 1015.2
20260904185524 87 152 3.0 14.0 0.00 0.00 0.00 70 1015.1
20260904185018 87 120 6.0 12.0 0.00 0.00 0.00 70 1015.2
20260904184513 87 144 4.0 14.0 0.00 0.00 0.00 70 1015.2
20260904184008 87 116 10.0 13.0 0.00 0.00 0.00 70 1015.4
20260904183502 87 134 4.0 12.0 0.00 0.00 0.00 72 1015.6
20260904182957 86 150 8.0 13.0 0.00 0.00 0.00 73 1015.6
20260904182453 85 125 7.0 12.0 0.00 0.00 0.00 75 1015.9
20260904181947 86 117 6.0 14.0 0.00 0.00 0.00 73 1015.7
20260904181443 86 124 8.0 9.0 0.00 0.00 0.00 74 1016.1
20260904180932 86 130 6.0 10.0 0.00 0.00 0.00 75 1016.1
20260904180427 85 97 4.0 12.0 0.00 0.00 0.00 75 1016.3
20260904175926 84 353 6.0 14.0 0.00 0.00 0.00 76 1016.5
20260904175425 85 102 5.0 11.0 0.00 0.00 0.00 76 1016.4
20260904174920 84 87 5.0 17.0 0.00 0.00 0.00 77 1016.6
20260904174415 84 98 8.0 12.0 0.00 0.00 0.00 77 1016.6
20260904173912 84 72 6.0 16.0 0.00 0.00 0.00 76 1016.7
20260904173407 84 91 5.0 11.0 0.00 0.00 0.00 77 1016.8
20260904172903 84 97 9.0 15.0 0.00 0.00 0.00 77 1016.9
20260904172402 84 110 9.0 18.0 0.00 0.00 0.00 77 1016.8
20260904171857 84 72 7.0 15.0 0.00 0.00 0.00 76 1017.2
20260904171352 84 31 4.0 16.0 0.00 0.00 0.00 76 1017.2
20260904170849 84 350 4.0 11.0 0.00 0.00 0.00 76 1016.9
20260904170344 84 30 11.0 13.0 0.00 0.00 0.00 75 1017.4
20260904165838 85 17 2.0 15.0 0.00 0.00 0.00 75 1017.4
20260904165337 84 6 6.0 12.0 0.00 0.00 0.00 77 1017.2
20260904164832 85 119 13.0 20.0 0.00 0.00 0.00 76 1017.2
20260904164326 84 0 5.0 16.0 0.00 0.00 0.00 77 1017.1
20260904163823 85 40 5.0 13.0 0.00 0.00 0.00 77 1017.2
20260904163323 86 355 4.0 10.0 0.00 0.00 0.00 77 1016.9
20260904162822 86 347 5.0 9.0 0.00 0.00 0.00 76 1016.9
20260904162318 86 85 7.0 15.0 0.00 0.00 0.00 76 1016.9
20260904161814 86 71 5.0 10.0 0.00 0.00 0.00 76 1016.8
20260904161314 87 40 2.0 13.0 0.00 0.00 0.00 75 1016.6
20260904160809 86 58 2.0 13.0 0.00 0.00 0.00 76 1016.6
20260904160304 86 50 6.0 11.0 0.00 0.00 0.00 77 1016.4
20260904155758 86 40 5.0 13.0 0.00 0.00 0.00 76 1016.5
20260904155253 87 354 8.0 13.0 0.00 0.00 0.00 75 1016.3
20260904154751 88 35 6.0 8.0 0.00 0.00 0.00 73 1016.2
20260904154247 89 29 2.0 13.0 0.00 0.00 0.00 72 1016.1
20260904153742 89 50 4.0 9.0 0.00 0.00 0.00 71 1016.0
20260904153237 88 354 3.0 10.0 0.00 0.00 0.00 72 1015.9
20260904152733 88 6 2.0 8.0 0.00 0.00 0.00 72 1016.0
20260904152228 88 46 3.0 4.0 0.00 0.00 0.00 72 1015.9
20260904151723 87 348 2.0 10.0 0.00 0.00 0.00 72 1015.8
20260904151222 87 16 6.0 8.0 0.00 0.00 0.00 70 1016.0
20260904150718 86 357 5.0 6.0 0.00 0.00 0.00 71 1015.8
20260904150213 86 50 2.0 9.0 0.00 0.00 0.00 73 1016.0
20260904145711 87 349 2.0 7.0 0.00 0.00 0.00 73 1016.1
20260904145207 87 319 2.0 5.0 0.00 0.00 0.00 72 1015.7
20260904144702 87 323 2.0 6.0 0.00 0.00 0.00 73 1015.7
20260904144158 87 322 0.0 4.0 0.00 0.00 0.00 73 1015.8
20260904143653 87 307 3.0 6.0 0.00 0.00 0.00 71 1015.7
20260904143150 87 293 1.0 5.0 0.00 0.00 0.00 72 1015.7
20260904142646 86 335 5.0 7.0 0.00 0.00 0.00 73 1015.8
20260904142141 86 279 2.0 7.0 0.00 0.00 0.00 73 1015.6
20260904141635 86 265 3.0 9.0 0.00 0.00 0.00 73 1015.5
20260904141126 86 230 1.0 6.0 0.00 0.00 0.00 73 1015.7
20260904140621 85 236 2.0 5.0 0.00 0.00 0.00 74 1015.5
20260904140115 85 252 3.0 6.0 0.00 0.00 0.00 74 1015.4
20260904135614 86 269 3.0 6.0 0.00 0.00 0.00 73 1015.5
20260904135111 85 279 3.0 5.0 0.00 0.00 0.00 73 1015.6
20260904134606 86 315 2.0 3.0 0.00 0.00 0.00 73 1015.5
20260904134100 86 256 3.0 3.0 0.00 0.00 0.00 72 1015.7
20260904133555 85 288 2.0 4.0 0.00 0.00 0.00 73 1015.6
20260904133051 86 279 2.0 3.0 0.00 0.00 0.00 74 1015.5
20260904132550 85 236 2.0 3.0 0.00 0.00 0.00 75 1015.4
20260904132045 85 277 1.0 2.0 0.00 0.00 0.00 75 1015.4
20260904131545 86 153 1.0 3.0 0.00 0.00 0.00 73 1015.5
20260904131040 87 75 0.0 2.0 0.00 0.00 0.00 72 1015.1
20260904130540 85 190 0.0 3.0 0.00 0.00 0.00 73 1015.1
20260904130034 85 309 0.0 2.0 0.00 0.00 0.00 75 1014.8
20260904125531 83 240 3.0 3.0 0.00 0.00 0.00 78 1015.1
20260904125026 82 253 0.0 3.0 0.00 0.00 0.00 80 1014.8
20260904124522 82 195 0.0 3.0 0.00 0.00 0.00 80 1014.7
20260904124017 81 319 0.0 4.0 0.00 0.00 0.00 82 1014.7
20260904123516 80 229 1.0 3.0 0.00 0.00 0.00 81 1014.6
20260904123012 80 200 0.0 2.0 0.00 0.00 0.00 82 1014.5
20260904122507 78 224 1.0 3.0 0.00 0.00 0.00 85 1014.3
20260904122002 78 204 2.0 3.0 0.00 0.00 0.00 86 1014.3
20260904121458 77 206 3.0 4.0 0.00 0.00 0.00 88 1014.2